CubeSats
NORAD ID: 28895
Int'l Code: 2005-043F
Perigee: 683.9 km
Apogee: 709.7 km
Inclination: 97.9 °
Period: 98.6 minutes
Semi major axis: 7067 km
Launch date: October 27, 2005
Source: Japan (JPN)
Comments: CubeSat 11-5 is a Japanese picosatellite that was launched by a Cosmos 3M rocket from Plesetsk at 06:52 UT on 27 October 2005. (It was actually released from the microsatellite, SSETI).
Two Line Element Set (TLE):
1 28895U 05043F 13140.62040705 .00000792 00000-0 16978-3 0 4804
2 28895 097.8730 357.2871 0018278 164.6836 195.4922 14.61093756402911
Source: AFSPC
NASA's NSSDC Master Catalog entry for CUBESAT XI-V